Location: Franzen
(48.6167°N, 15.3833°E)
Time: 13:02:55
(UTC+00:00)

Cosmos 883 Rocket - Pass Details

Date: 22 April 2021
Orbit: 951 x 994 km, 83.0° (Epoch: 16 May)

Event Time Altitude Azimuth Distance (km) Brightness Sun altitude
Exits shadow 22:06:44 69° 219° (SW) 1,046 4.4 -27.9°
Maximum altitude 22:07:29 79° 279° (W) 1,000 4.5 -27.9°
Drops below altitude 10° 22:13:49 10° 7° (N) 2,753 7.7 -28.1°
Sets 22:16:22 0° 9° (N) 3,711 8.6 -28.2°
